Location: Ecklingerode
(51.5036°N, 10.3122°E)
Time: 07:55:05
(UTC+00:00)

Cosmos 1503 Rocket - Pass Details

Date: 29 October 2020
Orbit: 752 x 791 km, 74.0° (Epoch: 01 December)

Event Time Altitude Azimuth Distance (km) Brightness Sun altitude
Rises 17:14:10 0° 336° (NNW) 3,229 7.5 -12.5°
Reaches altitude 10° 17:16:35 10° 340° (NNW) 2,304 6.7 -12.9°
Maximum altitude 17:21:46 63° 62° (ENE) 859 4.0 -13.7°
Drops below altitude 10° 17:26:58 10° 143° (SE) 2,314 6.2 -14.5°
Sets 17:29:23 0° 147° (SSE) 3,243 7.0 -14.9°
